GFSNGP_prec_cthk_000.txt.gz
RH
30 29 29 31 33 36 42 45 54 51 55 60 64 62 61 59 60 64 62 66 67 66 62 59 54 51 51 51 53 55 62 71 55 50 47 45 45 47 47 47 47 52 53 50
37 31 30 31 33 36 38 43 48 53 55 65 65 58 62 61 65 66 67 67 66 62 58 59 53 48 44 44 48 58 56 54 50 70 84 77 79 69 54 54 56 60 54 53
44 37 38 52 43 41 45 48 53 60 60 63 63 66 68 64 64 66 69 65 61 59 59 53 46 41 42 40 36 41 45 54 59 77 87 86 77 60 64 61 65 63 55 55
51 48 54 41 39 44 46 50 55 61 68 74 72 70 68 69 71 73 69 62 60 53 49 50 46 44 38 32 27 30 44 59 66 68 70 78 61 70 71 75 78 54 54 59
57 48 37 37 43 46 51 53 57 64 69 73 75 70 71 73 75 69 64 59 52 46 49 46 45 42 37 31 35 39 44 45 73 77 92 76 73 74 81 84 54 55 57 60
57 61 52 42 51 53 55 60 70 73 74 75 71 72 72 71 67 63 56 48 47 50 50 47 42 39 34 35 36 40 41 50 75 84 95 89 75 78 85 57 53 57 55 53
58 60 52 44 50 55 65 72 77 81 83 79 77 76 73 71 66 52 49 53 54 48 45 41 39 37 38 36 37 48 51 49 71 93 96 79 74 83 58 50 54 53 51 54
59 62 62 53 59 67 73 81 82 84 81 78 76 74 70 63 53 52 57 54 49 46 43 38 37 42 43 40 37 43 52 59 67 75 76 76 82 75 48 51 54 55 56 52
54 52 54 62 63 68 76 82 85 88 82 76 74 71 63 54 55 61 58 50 46 45 41 38 45 50 47 45 43 48 51 63 68 72 78 84 83 47 48 51 53 56 55 52
52 45 50 59 70 75 80 85 89 87 81 78 76 67 60 58 61 55 50 45 45 41 37 39 38 41 46 46 49 53 61 70 77 81 83 82 56 48 48 51 52 56 56 50
46 46 56 68 75 82 83 88 90 88 85 79 72 66 62 57 52 49 47 45 41 37 38 36 37 42 44 46 52 56 66 71 72 77 84 62 48 48 48 49 52 57 57 53
55 59 63 73 83 86 88 89 87 84 80 74 71 63 54 51 46 41 38 34 31 32 34 36 40 44 48 52 56 64 68 68 74 69 61 53 53 47 44 49 53 57 57 54
54 64 72 83 86 84 81 80 78 73 69 69 57 53 48 43 36 33 29 28 30 32 36 39 44 48 55 61 63 70 72 71 62 55 57 57 52 45 44 52 54 56 59 57
66 78 83 81 82 82 79 73 70 67 61 53 50 46 40 35 32 30 27 28 30 33 36 38 46 56 68 66 70 73 77 67 56 52 53 53 50 45 49 54 56 61 61 60
79 82 83 83 83 82 75 69 63 54 51 48 44 39 35 32 28 25 26 29 31 32 34 41 50 62 72 76 74 74 73 65 53 47 48 52 50 49 55 57 58 62 66 64
83 85 85 82 80 74 65 55 52 50 48 44 37 32 31 26 25 27 28 32 33 30 38 50 59 68 73 76 76 75 69 65 57 49 49 52 52 54 60 59 61 65 67 68
86 81 83 82 74 61 51 51 50 47 42 36 31 28 26 26 26 26 28 31 34 40 51 61 66 71 76 77 80 75 71 62 53 50 50 54 56 61 61 61 64 67 68 65
84 84 82 70 58 53 50 49 47 43 36 32 30 28 26 28 29 29 31 32 37 44 59 67 71 73 76 81 83 73 63 59 53 53 56 58 60 62 63 66 67 67 67 65
80 74 67 59 54 50 48 43 40 36 34 31 29 27 29 30 31 33 35 38 45 52 63 72 74 75 77 81 68 63 61 60 57 57 61 61 63 61 67 69 68 66 65 65
70 64 58 51 49 47 42 34 35 35 32 31 31 32 31 32 34 36 39 44 51 58 67 73 77 78 80 73 64 62 64 63 61 58 61 63 61 62 70 69 65 65 65 66
65 57 53 51 43 34 33 36 35 31 30 32 35 36 36 35 38 43 46 48 51 61 74 79 80 79 82 76 70 71 69 65 59 55 57 59 61 64 68 67 66 67 66 66
56 53 46 36 34 35 34 33 31 31 31 34 39 43 43 43 47 48 58 60 57 63 73 79 83 84 86 79 76 76 74 69 58 55 55 59 64 68 66 66 67 65 63 63
51 42 37 37 35 31 29 29 31 33 38 45 50 54 57 58 62 63 55 63 63 67 73 80 85 88 88 85 83 80 79 74 63 59 59 61 63 64 64 66 67 65 63 61
40 37 34 31 31 30 29 31 37 43 50 55 61 63 65 64 63 73 70 68 67 69 72 79 88 90 90 89 90 93 92 85 71 63 60 62 63 66 68 70 71 69 64 61
34 32 31 30 32 33 38 45 49 57 70 71 69 71 74 79 77 70 72 73 70 73 75 79 86 90 92 92 94 97 97 95 84 71 67 65 65 70 73 75 76 74 69 64
34 33 34 37 40 44 49 54 61 67 72 64 69 77 78 80 81 80 78 75 74 75 78 83 87 91 94 96 97 98 98 98 95 82 71 69 69 72 76 79 82 82 77 71
37 40 44 46 48 53 62 67 68 69 72 77 77 79 80 81 79 79 78 75 75 76 77 81 86 92 97 98 99 99 98 98 96 87 77 72 71 72 77 80 82 83 81 77

GFSNGP_prec_cthk_003.txt.gz
RH
29 26 28 27 28 30 35 41 52 47 51 60 64 66 74 74 70 65 69 65 61 58 56 57 55 52 42 37 35 32 27 28 35 50 58 65 80 78 97 86 68 63 56 51
33 34 33 30 31 31 33 37 41 46 56 60 61 63 69 66 68 70 69 63 59 57 57 54 51 43 42 39 35 30 28 25 26 35 49 64 67 98 85 70 70 73 58 49
46 39 41 46 34 35 36 40 45 52 58 61 62 65 70 72 70 70 67 62 59 57 52 46 42 45 43 38 34 29 25 23 30 41 46 54 67 90 93 89 76 74 52 39
47 43 45 38 32 32 38 45 48 56 62 63 67 71 73 70 72 70 67 62 56 49 44 44 47 44 38 34 29 28 22 21 28 35 39 48 67 93 94 87 76 57 41 45
50 50 36 34 35 35 40 49 54 61 66 69 72 76 76 77 75 68 61 50 46 46 47 48 42 37 35 31 31 27 25 25 31 44 46 54 76 91 89 79 64 44 43 49
52 53 50 41 40 40 43 54 58 60 68 73 73 80 77 70 66 62 54 49 49 50 49 44 40 40 34 34 29 30 31 34 40 44 55 64 78 80 74 71 56 44 47 48
55 52 45 35 39 38 55 52 61 65 71 73 76 75 73 72 65 59 52 53 56 52 48 44 43 37 35 30 33 33 34 39 44 51 61 64 67 74 79 69 46 46 47 56
54 57 54 37 41 47 48 56 62 68 71 75 77 74 75 68 62 56 58 58 54 50 47 42 38 37 30 32 32 33 37 43 49 59 69 72 80 87 84 55 44 46 52 57
47 46 38 45 48 50 51 61 69 75 75 76 78 79 75 67 61 61 59 56 50 45 42 39 38 32 33 33 33 38 43 46 54 64 71 77 86 89 70 49 45 46 52 51
50 47 49 54 51 53 60 66 71 75 79 80 80 76 70 66 60 57 53 46 46 41 34 31 27 29 32 34 38 43 47 51 57 64 70 76 78 66 54 49 44 47 50 51
44 46 50 52 53 61 67 72 81 83 84 88 80 75 68 60 58 51 47 42 32 27 24 22 24 27 34 39 41 47 56 57 60 64 64 57 56 58 56 51 45 47 52 54
48 49 52 56 64 69 74 79 80 84 84 80 72 65 59 57 49 46 36 29 26 23 22 24 28 29 32 38 47 55 64 61 62 63 56 53 56 59 56 49 43 51 53 55
54 56 55 63 70 78 83 80 79 80 76 68 66 57 50 47 40 34 30 27 25 24 24 26 27 30 37 50 56 64 70 70 66 60 53 49 52 52 50 44 48 54 55 58
53 55 61 72 81 80 80 80 80 75 71 61 51 48 43 38 34 32 29 28 25 24 25 26 29 37 48 58 63 71 73 75 70 59 54 47 47 49 51 51 56 57 59 62
55 61 76 80 86 86 84 80 78 71 59 49 48 43 36 35 34 31 29 26 24 26 27 31 36 45 57 65 67 73 75 76 68 59 55 47 49 53 56 58 60 62 63 64
71 80 88 91 86 84 81 79 73 56 52 48 42 37 37 36 33 29 26 26 27 27 29 34 42 54 64 66 69 73 76 75 65 60 55 48 54 57 57 61 63 65 65 66
87 89 89 87 82 83 79 69 58 53 47 43 39 38 37 35 30 27 26 27 28 30 37 41 50 62 67 66 73 78 75 66 62 60 57 53 58 59 62 59 65 67 64 62
92 91 89 85 84 78 65 59 52 48 44 39 38 39 36 32 29 28 28 28 29 32 42 49 59 69 72 71 75 77 65 60 63 59 56 56 60 60 58 62 67 64 61 60
93 87 88 86 71 62 58 52 49 42 37 39 39 34 31 31 32 32 32 36 40 40 44 53 62 74 78 78 78 72 61 58 61 60 57 54 56 58 58 66 66 62 60 58
88 85 76 64 63 57 53 46 40 38 40 37 32 29 30 33 38 38 41 45 52 53 55 58 64 75 83 85 85 75 64 64 67 63 53 52 56 57 61 66 63 63 59 57
80 71 69 60 56 50 44 42 40 37 32 30 30 32 37 42 47 52 51 50 56 59 63 65 68 75 83 91 92 82 77 76 72 65 58 52 56 60 62 63 63 61 60 57
70 65 62 56 48 43 39 36 32 29 29 30 37 44 49 54 57 54 60 63 61 64 65 67 70 76 83 91 89 85 84 83 81 76 65 57 56 57 62 64 64 64 62 57
65 62 53 43 38 35 31 29 30 33 36 43 47 57 63 64 64 62 55 66 67 70 72 71 73 79 83 90 91 89 86 89 90 89 81 67 63 61 61 63 66 67 66 62
51 43 40 37 34 30 27 29 34 40 47 52 61 70 72 67 59 68 67 69 73 75 75 75 76 81 85 88 92 93 93 94 95 97 94 83 71 68 65 66 69 71 71 71
40 37 35 32 30 30 34 37 40 46 56 65 72 77 80 77 77 71 70 71 74 75 75 75 77 79 81 85 91 95 98 98 98 98 98 97 89 75 71 70 71 75 77 78
36 35 34 36 40 43 45 49 53 56 63 69 75 81 76 77 80 79 76 78 80 79 76 77 80 82 84 87 87 90 93 96 98 99 99 99 95 86 75 72 73 77 81 82
40 41 42 43 47 51 55 60 66 67 68 69 66 73 76 77 82 86 85 81 78 79 79 78 79 81 82 82 83 84 88 92 95 98 98 99 98 91 81 78 79 81 85 86

GFSNGP_prec_cthk_009.txt.gz
RH
31 31 27 27 27 31 33 33 37 32 35 38 44 48 51 54 58 63 67 69 69 70 72 78 72 66 61 54 47 44 39 36 31 28 23 23 23 23 27 37 46 51 57 64
32 33 33 28 28 29 29 29 32 34 38 38 44 50 55 58 62 66 69 71 74 79 77 68 65 60 54 50 48 44 38 34 32 28 25 25 24 26 32 43 51 59 69 78
30 39 35 29 26 28 26 29 31 40 35 41 50 54 56 60 63 66 69 73 70 67 65 66 62 57 52 50 47 41 38 36 33 29 28 27 26 28 38 46 57 71 72 69
39 37 32 23 26 28 28 32 34 36 38 43 49 54 57 59 63 68 71 68 65 66 67 63 57 52 50 49 45 41 39 37 32 28 29 30 31 37 45 52 60 66 67 74
42 44 30 24 29 32 31 33 36 36 42 45 48 54 56 61 61 62 62 62 63 66 62 54 51 51 50 48 44 41 36 32 30 31 30 32 36 42 51 59 64 68 74 82
52 38 33 23 28 29 32 39 36 38 42 42 49 59 55 58 61 64 66 65 66 62 54 52 53 50 50 43 39 34 30 29 33 32 31 35 42 47 55 64 72 80 86 86
54 46 36 25 31 32 42 33 35 37 40 45 52 57 58 62 66 69 68 67 64 56 54 54 50 48 39 34 31 31 31 32 35 33 35 40 47 55 64 72 76 72 65 66
52 53 39 26 34 37 33 32 37 43 46 49 58 63 66 67 70 71 69 69 63 58 55 51 45 35 31 30 31 31 31 32 35 40 43 46 50 58 66 63 62 58 60 60
41 38 29 30 31 32 36 40 44 49 52 59 66 69 71 75 73 71 73 73 64 55 51 43 33 32 32 30 28 27 29 32 40 49 53 51 52 55 57 55 56 58 57 54
43 35 36 38 38 40 46 50 52 53 60 67 69 76 76 77 76 78 77 67 56 51 41 35 35 34 33 30 26 27 31 36 47 56 60 60 59 59 55 54 56 56 55 53
46 42 42 41 43 48 52 55 59 62 67 68 74 75 76 78 81 79 68 57 52 43 38 36 35 33 30 26 26 30 36 43 52 62 66 68 70 66 59 55 52 54 53 54
48 44 47 47 50 52 55 59 63 64 68 73 79 84 84 84 80 70 58 53 44 41 39 36 34 28 27 27 30 35 40 47 57 66 70 75 76 67 58 54 53 55 56 60
49 51 51 52 55 56 56 59 65 71 81 87 87 85 86 83 72 60 56 46 43 40 38 35 29 27 27 28 33 40 48 53 60 70 75 78 76 68 62 53 54 57 60 62
61 60 58 58 58 59 64 72 78 83 86 90 87 92 85 75 66 56 48 44 42 39 36 30 29 27 28 34 37 44 54 57 65 73 77 75 66 63 63 60 57 60 61 62
61 62 60 60 60 67 76 80 84 88 91 83 95 85 76 68 54 48 46 43 40 36 32 31 29 30 36 39 44 51 59 66 69 74 76 68 68 65 65 65 59 60 59 63
63 66 69 74 78 81 82 84 93 93 88 97 83 76 65 55 50 47 44 41 35 33 34 32 34 39 42 46 52 58 65 74 76 76 74 72 70 69 68 64 57 56 56 64
75 79 79 80 83 86 89 98 97 93 95 76 67 64 55 51 46 45 40 34 34 35 35 38 39 44 47 53 58 63 69 78 87 82 77 71 69 70 61 60 60 57 61 65
81 83 85 88 91 97 94 95 92 77 71 67 62 55 50 46 44 37 33 34 35 39 45 47 46 47 51 58 62 69 74 80 90 95 83 77 76 68 62 60 60 60 62 65
85 88 92 94 96 92 86 78 74 69 64 60 54 49 47 41 34 31 33 35 40 42 48 52 53 54 54 59 65 72 76 83 92 97 84 77 78 76 65 63 63 62 62 63
89 91 93 88 85 81 77 73 68 62 57 53 49 44 37 33 32 34 37 42 52 52 55 58 57 57 58 60 67 71 74 84 92 96 90 84 84 85 77 68 65 65 64 62
88 85 86 84 80 74 70 65 59 55 50 45 39 36 32 33 37 42 46 48 56 60 61 60 63 64 62 64 67 70 74 81 89 93 91 88 90 95 93 86 77 70 68 65
88 87 83 78 73 69 63 57 50 46 42 39 36 35 37 40 46 48 54 58 57 60 61 61 66 69 67 70 72 71 74 79 86 90 90 90 92 95 98 98 94 83 77 73
84 81 77 70 64 57 52 50 48 44 40 37 39 42 45 46 49 53 52 57 56 59 60 62 69 74 76 77 77 75 78 82 86 91 95 97 95 95 98 97 99 99 95 83
73 68 63 56 53 52 48 44 40 39 40 43 46 48 50 51 51 56 59 59 58 59 62 65 70 74 79 83 81 80 82 84 84 82 82 82 84 88 92 96 97 98 99 98
55 53 51 49 47 43 41 41 43 46 47 48 51 54 56 58 59 57 59 64 63 62 65 69 74 78 81 82 81 79 77 71 70 69 69 71 75 77 82 90 93 97 99 99
43 42 43 45 47 48 48 47 45 47 50 50 53 58 59 61 62 61 62 62 63 69 74 76 81 80 84 84 82 78 71 65 58 56 56 56 57 58 64 78 88 95 99 99
41 42 43 46 49 50 49 49 47 44 47 52 52 54 53 52 55 57 60 65 72 78 78 81 87 86 86 85 81 74 66 60 56 52 50 51 52 52 54 63 73 86 93 98

GFSNGP_prec_cthk_012.txt.gz
RH
35 33 30 26 25 30 30 29 33 28 29 27 32 36 40 46 51 56 61 64 67 68 67 71 80 71 63 62 62 59 52 49 43 39 32 26 25 27 27 29 31 41 45 52
36 36 34 29 27 27 29 28 32 31 30 28 31 36 42 45 51 56 62 66 66 68 75 77 63 60 63 62 57 53 51 46 42 34 29 27 28 29 30 33 38 42 49 61
30 38 33 28 23 25 25 25 26 31 25 30 33 35 40 45 50 57 64 66 68 68 66 61 62 64 61 56 54 51 49 42 36 33 30 29 29 30 32 38 44 49 57 63
40 36 31 20 23 24 25 26 27 28 29 32 33 37 42 46 51 59 64 67 66 65 66 67 62 59 56 56 52 51 43 38 35 32 33 30 28 30 34 41 50 58 64 68
40 43 29 22 27 30 31 27 29 30 33 34 37 41 40 44 51 59 65 66 66 68 67 61 59 58 58 54 52 42 38 34 34 34 32 30 30 34 39 46 55 61 68 76
47 37 33 25 26 29 29 37 28 30 36 37 38 46 38 46 53 62 66 66 67 70 66 64 60 58 55 52 43 37 35 36 33 33 34 33 36 41 48 53 62 68 70 63
54 44 35 25 28 30 39 31 29 31 33 37 41 40 44 50 59 67 69 71 71 72 72 69 62 56 53 43 37 36 34 30 30 33 34 39 43 47 52 56 59 59 57 54
52 52 36 26 32 36 31 29 30 33 38 41 45 50 52 60 64 71 74 72 75 79 78 66 57 53 44 39 37 34 30 28 28 30 36 45 50 52 51 55 54 54 53 54
44 42 34 35 36 36 36 38 37 40 44 51 56 59 64 66 69 72 73 78 83 84 70 59 57 46 41 39 36 32 28 27 28 33 41 51 53 56 59 61 58 57 56 53
42 36 37 37 37 38 42 43 45 51 58 60 63 69 73 77 77 79 84 86 89 69 63 58 49 43 40 39 33 29 27 28 32 38 46 54 60 64 68 64 61 57 53 55
45 40 40 40 40 42 44 48 54 57 62 65 68 72 81 85 85 86 90 85 71 67 60 50 45 42 41 35 29 26 27 31 38 44 50 58 64 71 75 70 61 54 53 56
48 42 44 44 47 49 52 54 57 60 64 69 75 81 88 91 88 94 79 72 70 62 50 47 43 42 36 31 28 29 31 36 44 50 56 63 71 78 79 64 57 57 57 60
56 58 60 61 62 63 62 63 64 67 71 78 82 91 95 92 96 78 76 74 62 51 50 45 42 36 33 30 31 34 35 42 50 57 63 70 78 80 68 64 62 61 60 61
68 68 66 67 65 65 65 66 69 78 84 89 90 92 97 96 78 78 73 61 54 51 47 43 38 34 31 33 35 38 44 50 55 64 72 76 77 73 70 68 65 66 61 59
67 68 66 66 66 67 71 78 85 86 88 96 99 98 92 78 76 69 61 54 51 48 44 40 36 33 33 36 38 40 49 55 61 67 77 83 79 74 76 74 71 66 62 59
66 69 71 74 76 79 83 84 88 94 99 98 96 81 79 76 67 59 53 51 47 43 40 38 35 35 38 40 40 46 53 61 64 71 79 88 85 74 76 75 67 66 64 61
76 77 79 79 82 85 88 92 92 95 93 89 81 78 71 63 60 56 52 47 43 42 40 38 37 41 45 47 47 47 52 62 67 74 82 87 89 78 79 75 66 66 65 64
79 81 84 86 88 91 90 91 92 86 82 79 72 65 61 58 54 50 45 41 42 41 41 40 43 46 51 51 53 53 56 64 68 73 83 89 93 82 81 81 72 65 65 66
86 87 89 90 90 88 86 85 81 78 74 68 64 61 57 54 49 44 42 41 41 41 43 47 48 50 52 55 58 58 60 63 67 73 80 88 92 84 81 87 85 74 69 69
84 84 84 84 84 83 81 78 75 72 68 64 61 57 53 48 44 41 40 40 45 46 48 51 52 53 55 58 63 66 68 69 69 72 78 85 90 90 86 88 93 92 82 76
86 85 83 83 82 78 75 72 68 65 61 57 54 50 48 46 44 44 43 42 47 53 56 56 54 52 57 61 64 71 75 74 75 74 79 86 91 93 92 92 97 98 98 94
84 83 81 77 74 71 67 62 57 54 52 51 50 46 43 39 40 42 44 47 48 56 56 55 57 58 58 64 67 71 79 81 83 84 86 89 93 92 90 94 93 96 98 98
86 81 75 69 63 58 55 53 50 48 45 43 40 40 41 42 45 49 45 48 52 56 57 57 60 60 60 66 70 73 79 83 84 84 84 83 80 81 81 83 88 90 93 95
71 64 58 53 50 45 43 39 38 39 40 41 42 44 45 45 43 52 55 56 57 57 57 58 59 63 68 71 74 77 80 80 79 78 71 68 64 62 62 64 68 75 79 87
54 49 46 43 42 41 40 40 39 41 39 38 38 41 48 53 55 50 53 52 51 56 58 63 68 73 77 79 82 81 82 82 80 75 68 61 57 53 53 53 56 59 61 70
48 46 46 46 45 44 41 37 33 30 32 36 39 42 43 50 55 58 56 54 57 57 63 67 72 75 81 82 85 84 83 82 81 75 67 61 56 55 54 52 50 51 55 61
49 48 49 48 45 41 36 35 37 39 42 45 44 44 45 46 50 55 60 61 66 65 71 74 76 77 81 83 87 87 88 85 82 74 69 63 60 59 59 55 53 52 51 55